Location: Newark
(25.0000°N, 73.5000°E)
Time: 00:16:00
(UTC+00:00)

Tiros 1 despin weight - Pass Details

Date: 04 March 2021
Orbit: 593 x 641 km, 48.2° (Epoch: 15 April)

Event Time Altitude Azimuth Distance (km) Brightness Sun altitude
Rises 02:26:43 0° 301° (WNW) 2,937 ? 12.7°
Reaches altitude 10° 02:29:16 10° 291° (WNW) 2,026 ? 13.3°
Maximum altitude 02:33:19 29° 230° (SW) 1,155 ? 14.2°
Drops below altitude 10° 02:37:21 10° 170° (S) 2,010 ? 15.0°
Sets 02:39:53 0° 159° (SSE) 2,909 ? 15.6°
